SL-14 R/B (14820 NORAD) Tracking and Keplerian Element Data

This shows tracking and keplerian element data for the satellite.

Feedback or suggestion? Click here.




ElementValue
Catalog14820
NameSL-14 R/B
Epoch Orbit2300
Epoch Day15.80302211
Epoch Year2022
RAAN221.8056
Inclination82.5413
Eccentricity0.0017391
Argument of Perigee300.5119
Mean Anonmoly59.4378
Mean Motion14.83744222
Decay Rate1.91E-06
L11 14820U 84027B 22015.80302211 .00000191 00000+0 20161-4 0 9997
L22 14820 82.5413 221.8056 0017391 300.5119 59.4378 14.83744222 23002

Live tracking and technical data element details for SL-14 R/B (NORAD 14820). SL-14 R/B can be tracked NOW for your location showing map with azimuth and elevation plus other details from your city location.

Track the satellite on the map from your city or location and see movement details for azimuth, elevation, latitude, longitude, range, height, and movement on the map or in text.







IsCatalogInMostPopularTable: catalog: 14820, numindb: 228
Update: records affected: 1



GetName: 14820 SL-14 R/B

Hit Count: updated at: Mon, 17 Jan 2022 02:11:43 GMT